Location: Marcé
(47.5801°N, 0.3280°W)
Time: 07:11:58
(UTC+01:00)

Courier 1B - Pass Details

Date: 03 December 2021
Orbit: 962 x 1209 km, 28.3° (Epoch: 23 January)

Event Time Altitude Azimuth Distance (km) Brightness Sun altitude
Rises 17:21:24 0° 210° (SSW) 4,021 12.0 -2.3°
Reaches altitude 10° 17:27:15 10° 175° (S) 2,996 10.4 -3.1°
Maximum altitude 17:28:45 11° 164° (SSE) 2,928 10.2 -3.4°
Drops below altitude 10° 17:30:13 10° 152° (SSE) 2,960 10.1 -3.6°
Sets 17:35:49 0° 116° (ESE) 3,843 10.3 -4.4°
